Kansas Department of Transportation
RWIS(Road and Runway Information System) Map and Weather Data





Station
Surface
Air
Wind
Site IDSensor TypeLocationTemperature (°F)Temperature (°F)Humidity (%)Speed (mi/h)Gusts (mi/h)DirectionTime
123014AtmosphericBull Creek 459747SSWJan 21 2017 11:05AM
123014DeckBull Creek55     Jan 21 2017 11:05AM
123014DepartureBull Creek55     Jan 21 2017 11:05AM
123015AtmosphericLeavenworth 439659WSWJan 21 2017 11:05AM
123015DeckLeavenworth48     Jan 21 2017 11:05AM
123015DepartureLeavenworth48     Jan 21 2017 11:05AM
123020AtmosphericMayetta 439457SSWJan 21 2017 11:05AM
123020RoadwayMayetta61     Jan 21 2017 11:05AM
123020DeckMayetta61     Jan 21 2017 11:05AM
505000AtmosphericKTA 1 458312EJan 21 2017 10:50AM
505000ApproachKTA 148     Jan 21 2017 10:50AM
505000DeckKTA 152     Jan 21 2017 10:50AM
505001AtmosphericKTA 2 467624SJan 21 2017 10:50AM
505001ApproachKTA 252     Jan 21 2017 10:50AM
505001DeckKTA 250     Jan 21 2017 10:50AM
505002AtmosphericKTA 3 439946SSEJan 21 2017 10:50AM
505002ApproachKTA 352     Jan 21 2017 10:50AM
505002DeckKTA 350     Jan 21 2017 10:50AM
505003AtmosphericKTA 4 438157SSWJan 21 2017 10:50AM
505003ApproachKTA 454     Jan 21 2017 10:50AM
505003DeckKTA 454     Jan 21 2017 10:50AM
505004AtmosphericKTA 5 469957SWJan 21 2017 10:50AM
505004RoadwayKTA 534     Jan 21 2017 10:50AM
505004RoadwayKTA 534     Jan 21 2017 10:50AM
505005AtmosphericKTA 6 439144SJan 21 2017 10:50AM
505005Approach KTA 655     Jan 21 2017 10:50AM
505005DeckKTA 654     Jan 21 2017 10:50AM
505006AtmosphericKTA 7 459324WSWJan 21 2017 10:50AM
505006ApproachKTA 754     Jan 21 2017 10:50AM
505006DeckKTA 754     Jan 21 2017 10:50AM
505007AtmosphericKTA 8 439946SSWJan 21 2017 10:50AM
505007ApproachKTA 852     Jan 21 2017 10:50AM
505007DeckKTA 850     Jan 21 2017 10:50AM
505008AtmosphericKTA 9 451014WSWJan 21 2017 10:50AM
505008ApproachKTA 955     Jan 21 2017 10:50AM
505008DeckKTA 954     Jan 21 2017 10:50AM
505009AtmosphericKTA 10 547936SSWJan 21 2017 10:50AM
505009ApproachKTA 1052     Jan 21 2017 10:50AM
505009DeckKTA 1050     Jan 21 2017 10:50AM
505010AtmosphericWebb 483225ESEJan 21 2017 11:05AM
505010DeckWebb54     Jan 21 2017 11:05AM
505010NullWebb54     Jan 21 2017 11:05AM
505014AtmosphericI-135 457825SSEJan 21 2017 11:05AM
505014ApproachI-13552     Jan 21 2017 11:05AM
505014DeckI-135Unavailable     Jan 21 2017 11:05AM
540000AtmosphericBlue Rapids 467447SJan 21 2017 11:05AM
540000DeckBlue Rapids50     Jan 21 2017 11:05AM
540000DepartureBlue Rapids52     Jan 21 2017 11:05AM
540001AtmosphericSabetha 439947NNEJan 21 2017 11:05AM
540001ApproachSabetha55     Jan 21 2017 11:05AM
540001DeckSabetha59     Jan 21 2017 11:05AM
540002AtmosphericWestgate 469014SSWJan 21 2017 11:05AM
540002DeckWestgate55     Jan 21 2017 11:05AM
540002DepartureWestgate57     Jan 21 2017 11:05AM
540003AtmosphericEmporia 48771217SSEJan 21 2017 11:05AM
540003ApproachEmporiaUnavailable     Jan 21 2017 11:05AM
540003DeckEmporia52     Jan 21 2017 11:05AM
540005AtmosphericLawrence 458625SJan 21 2017 11:05AM
540005ApproachLawrence55     Jan 21 2017 11:05AM
540005DeckLawrenceUnavailable     Jan 21 2017 11:05AM
540007AtmosphericManhattan 458012WJan 21 2017 11:05AM
540007DepartureManhattan50     Jan 21 2017 11:05AM
540007DeckManhattan54     Jan 21 2017 11:05AM
541000AtmosphericElkhart 417513NWJan 21 2017 11:05AM
541000ApproachElkhartUnavailable     Jan 21 2017 11:05AM
541000DeckElkhartUnavailable     Jan 21 2017 11:05AM
541001AtmosphericSyracuse 368946SSEJan 21 2017 11:05AM
541001Out of Service for WinterSyracuse45     Jan 21 2017 11:05AM
541001DeckSyracuse43     Jan 21 2017 11:05AM
541002AtmosphericLiberal 398224ESEJan 21 2017 11:05AM
541002ApproachLiberal46     Jan 21 2017 11:05AM
541002DeckLiberal52     Jan 21 2017 11:05AM
541003AtmosphericFord 457879ESEJan 21 2017 11:05AM
541003DeckFord52     Jan 21 2017 11:05AM
541003DepartureFord57     Jan 21 2017 11:05AM
541004AtmosphericScott 451167SEJan 21 2017 11:05AM
541004DepartureScott54     Jan 21 2017 11:05AM
541005AtmosphericNess 456500ESEJan 21 2017 11:05AM
541005DeckNess52     Jan 21 2017 11:05AM
541005DepartureNess54     Jan 21 2017 11:05AM
543000AtmosphericJunction City 468112NEJan 21 2017 11:05AM
543000ApproachJunction City54     Jan 21 2017 11:05AM
543000DeckJunction City57     Jan 21 2017 11:05AM
543001AtmosphericEllsworth 465725WSWJan 21 2017 11:05AM
543001RoadwayEllsworth63     Jan 21 2017 11:05AM
543002AtmosphericMcPherson 457913SSWJan 21 2017 11:05AM
543002ApproachMcPherson54     Jan 21 2017 11:05AM
543003AtmosphericSalina 456803NJan 21 2017 11:05AM
543003DepartureSalina54     Jan 21 2017 11:05AM
543003RoadwaySalinaUnavailable     Jan 21 2017 11:05AM
543004AtmosphericConcordia 418925SJan 21 2017 11:05AM
543004ApproachConcordiaUnavailable     Jan 21 2017 11:05AM
543004DeckConcordia46     Jan 21 2017 11:05AM
543005AtmosphericPeabody 457946NWJan 21 2017 11:05AM
543005ApproachPeabody61     Jan 21 2017 11:05AM
543005DeckPeabodyUnavailable     Jan 21 2017 11:05AM
560000AtmosphericEdson 437022ESEJan 21 2017 11:05AM
560000RoadwayEdson46     Jan 21 2017 11:05AM
560000RoadwayEdson46     Jan 21 2017 11:05AM
560001AtmosphericOakley 466245ENEJan 21 2017 11:05AM
560001ApproachOakley52     Jan 21 2017 11:05AM
560001DeckOakley55     Jan 21 2017 11:05AM
560002AtmosphericAtwood 437212SJan 21 2017 11:05AM
560002ApproachAtwood41     Jan 21 2017 11:05AM
560002DeckAtwood43     Jan 21 2017 11:05AM
560003AtmosphericJennings 457311WSWJan 21 2017 11:05AM
560003ApproachJennings45     Jan 21 2017 11:05AM
560003DeckJennings36     Jan 21 2017 11:05AM
560004AtmosphericWakeeney 524912NNEJan 21 2017 11:05AM
560004ApproachWakeeney55     Jan 21 2017 11:05AM
560004DeckWakeeney57     Jan 21 2017 11:05AM
560005AtmosphericWalker 436735SJan 21 2017 11:05AM
560005ApproachWalker54     Jan 21 2017 11:05AM
560005DeckWalker63     Jan 21 2017 11:05AM
560006AtmosphericBow Creek(Stockton) 456722SEJan 21 2017 11:05AM
560006ApproachBow Creek(Stockton)52     Jan 21 2017 11:05AM
560006DeckBow Creek(Stockton)52     Jan 21 2017 11:05AM
560007AtmosphericLebanon 438714SJan 21 2017 11:05AM
560007ApproachLebanon48     Jan 21 2017 11:05AM
560007DeckLebanon50     Jan 21 2017 11:05AM
560008AtmosphericWallace 416812ENEJan 21 2017 11:05AM
560008ApproachWallace50     Jan 21 2017 11:05AM
560008DeckWallace48     Jan 21 2017 11:05AM
572000AtmosphericGreat Bend 487824SEJan 21 2017 11:05AM
572000ApproachGreat Bend59     Jan 21 2017 11:05AM
572000DeckGreat Bend54     Jan 21 2017 11:05AM
572001AtmosphericPratt 482414EJan 21 2017 11:05AM
572001ApproachPratt54     Jan 21 2017 11:05AM
572001DeckPratt54     Jan 21 2017 11:05AM
572002AtmosphericAnthony 458357SEJan 21 2017 11:05AM
572002ApproachAnthony52     Jan 21 2017 11:05AM
572002DeckAnthony50     Jan 21 2017 11:05AM
573000AtmosphericEureka 506848SWJan 21 2017 11:05AM
573000DeckEureka55     Jan 21 2017 11:05AM
573000DepartureEureka54     Jan 21 2017 11:05AM
573001AtmosphericGarnett 467646SSWJan 21 2017 11:05AM
573001ApproachGarnett59     Jan 21 2017 11:05AM
573001DeckGarnett57     Jan 21 2017 11:05AM
573002AtmosphericCaney 487000WJan 21 2017 11:05AM
573002RoadwayCaney54     Jan 21 2017 11:05AM
573003AtmosphericChetopa 555013WSWJan 21 2017 11:05AM
573003DeckChetopa63     Jan 21 2017 11:05AM
573003DepartureChetopa63     Jan 21 2017 11:05AM
573004AtmosphericChanute 507345SJan 21 2017 11:05AM
573004ApproachChanute61     Jan 21 2017 11:05AM
573004DeckChanute59     Jan 21 2017 11:05AM